GW6015 Weather Reports


time (UTC)temp
F
wind
direction
speed
knots
gust
knots
rain 1hr
in
rain 24hr
in
rain mn
in
humidity
%
barometer
mb
20260507010058 54 0 0.0 3.5 0.00 0.27 0.27 92 1008.7
20260507004558 55 193 0.9 2.6 0.00 0.27 0.27 92 1008.9
20260507003058 55 0 0.9 3.5 0.00 0.27 0.27 92 1009.0
20260507001606 55 201 0.0 4.3 0.00 0.27 0.27 92 1008.9
20260507000127 55 0 0.0 2.6 0.00 0.27 0.27 92 1008.7
20260506234625 55 0 1.7 5.2 0.00 0.27 0.27 92 1008.6
20260506233059 55 200 2.6 7.0 0.00 0.27 0.27 92 1008.6
20260506231559 55 212 2.6 7.0 0.00 0.27 0.27 92 1008.6
20260506230103 55 180 1.7 7.0 0.00 0.27 0.27 92 1008.5
20260506224556 55 212 2.6 9.6 0.01 0.27 0.27 92 1008.4
20260506223105 55 248 2.6 6.1 0.02 0.27 0.27 92 1008.4
20260506221603 55 187 1.7 6.1 0.05 0.27 0.27 92 1008.3
20260506220059 55 223 2.6 7.8 0.12 0.27 0.27 91 1008.3
20260506214600 55 190 3.5 12.2 0.17 0.26 0.26 91 1008.1
20260506213101 55 200 2.6 8.7 0.18 0.25 0.25 91 1008.2
20260506211559 55 176 2.6 8.7 0.16 0.22 0.22 91 1008.5
20260506210058 55 221 2.6 7.0 0.09 0.14 0.14 91 1008.9
20260506204600 55 221 1.7 5.2 0.04 0.09 0.09 90 1009.1
20260506203102 55 0 1.7 7.0 0.02 0.07 0.07 90 1009.0
20260506201558 56 209 2.6 7.0 0.02 0.06 0.06 90 1009.3
20260506200100 56 186 1.7 7.0 0.01 0.05 0.05 90 1009.2
20260506194600 56 167 1.7 6.1 0.03 0.05 0.05 90 1009.2
20260506193059 55 184 1.7 6.1 0.04 0.05 0.05 90 1009.8
20260506191604 56 182 2.6 7.0 0.04 0.04 0.04 89 1009.9
20260506190055 56 192 2.6 7.0 0.04 0.04 0.04 88 1009.7
20260506184603 57 174 4.3 11.3 0.02 0.02 0.02 87 1009.9
20260506183104 57 183 4.3 10.4 0.01 0.01 0.01 86 1010.2
20260506181607 58 186 5.2 13.9 0.00 0.00 0.00 84 1010.5
20260506180059 59 180 5.2 11.3 0.00 0.00 0.00 82 1010.9
20260506174557 59 212 4.3 12.2 0.00 0.00 0.00 81 1010.9
20260506173123 60 169 3.5 12.2 0.00 0.00 0.00 81 1011.2
20260506171604 60 207 4.3 10.4 0.00 0.00 0.00 80 1011.2
20260506170109 60 201 1.7 7.8 0.00 0.00 0.00 80 1011.5
20260506164555 60 182 2.6 10.4 0.00 0.00 0.00 79 1011.4
20260506163106 61 132 4.3 13.9 0.00 0.00 0.00 78 1011.5
20260506161605 62 221 5.2 13.9 0.00 0.00 0.00 77 1011.7
20260506160104 61 136 4.3 13.9 0.00 0.00 0.00 78 1012.0
20260506154613 62 173 5.2 13.9 0.00 0.00 0.00 78 1012.0
20260506153059 62 183 3.5 9.6 0.00 0.00 0.00 78 1012.3
20260506151558 62 140 3.5 9.6 0.00 0.00 0.00 77 1012.1
20260506150057 63 171 4.3 8.7 0.00 0.00 0.00 76 1012.3
20260506144606 62 195 3.5 10.4 0.00 0.00 0.00 77 1012.5
20260506143058 61 229 4.3 12.2 0.00 0.00 0.00 79 1012.7
20260506141602 61 195 4.3 12.2 0.00 0.00 0.00 79 1012.5
20260506134556 60 173 3.5 10.4 0.00 0.00 0.00 80 1012.0
20260506133126 61 213 3.5 8.7 0.00 0.00 0.00 80 1011.8
20260506131558 60 97 2.6 7.8 0.00 0.00 0.00 80 1012.4
20260506130122 60 135 2.6 8.7 0.00 0.00 0.00 82 1012.7
20260506124559 59 170 3.5 8.7 0.00 0.00 0.00 83 1012.6
20260506123057 58 199 2.6 8.7 0.00 0.00 0.00 83 1012.7
20260506121559 58 184 0.9 7.8 0.00 0.00 0.00 84 1012.6
20260506120058 57 224 2.6 7.0 0.00 0.00 0.00 85 1012.6
20260506114605 57 182 2.6 7.0 0.00 0.00 0.00 85 1012.7
20260506113058 57 194 2.6 7.0 0.00 0.00 0.00 85 1012.8
20260506111556 56 218 1.7 5.2 0.00 0.00 0.00 86 1012.7
20260506110057 56 213 1.7 7.0 0.00 0.00 0.00 86 1012.8
20260506104635 56 183 1.7 5.2 0.00 0.00 0.00 86 1012.7
20260506103103 56 211 0.9 6.1 0.00 0.00 0.00 86 1012.8
20260506101600 56 227 1.7 5.2 0.00 0.00 0.00 86 1012.6
20260506094603 56 205 1.7 6.1 0.00 0.00 0.00 86 1012.5
20260506093111 56 190 1.7 6.1 0.00 0.00 0.00 86 1012.6
20260506091602 56 196 0.9 9.6 0.00 0.00 0.00 86 1012.6
20260506090059 56 196 1.7 5.2 0.00 0.00 0.00 86 1012.7
20260506084559 57 211 0.9 6.1 0.00 0.00 0.00 85 1012.8
20260506083107 57 199 1.7 6.1 0.00 0.00 0.00 85 1012.8
20260506081602 57 180 1.7 7.8 0.00 0.00 0.00 85 1012.8
20260506080111 57 183 2.6 7.8 0.00 0.00 0.00 85 1012.9
20260506073057 57 208 1.7 5.2 0.00 0.00 0.00 84 1013.0
20260506071621 57 259 1.7 7.8 0.00 0.00 0.00 84 1013.0
20260506061600 57 194 2.6 8.7 0.00 0.00 0.00 84 1013.1
20260506044612 58 198 3.5 8.7 0.00 0.00 0.00 81 1013.5
20260506043059 58 185 2.6 9.6 0.00 0.00 0.00 80 1013.6
20260506041558 58 184 1.7 6.1 0.00 0.00 0.00 79 1013.6
20260506040059 58 188 1.7 7.8 0.00 0.00 0.00 78 1013.5
20260506034601 59 194 1.7 9.6 0.00 0.00 0.00 78 1013.5
20260506033059 59 250 3.5 8.7 0.00 0.00 0.00 77 1013.5
20260506031559 59 193 3.5 8.7 0.00 0.00 0.00 77 1013.4
20260506024558 59 189 1.7 7.8 0.00 0.00 0.00 76 1013.3
20260506023102 59 271 1.7 7.8 0.00 0.00 0.00 75 1013.2
20260506021601 59 184 0.9 8.7 0.00 0.00 0.00 75 1013.0
20260506020059 59 186 2.6 7.8 0.00 0.00 0.00 74 1012.9
20260506014609 59 184 2.6 11.3 0.00 0.00 0.00 75 1012.8
20260506013107 59 226 4.3 11.3 0.00 0.00 0.00 74 1012.8
20260506011607 59 156 2.6 9.6 0.00 0.00 0.00 74 1012.4